STARLINK-34354

Last updated on Thu Jul 03 2025 00:02:06 GMT+0000 (Coordinated Universal Time)

1 64314U 25123Z 25183.58335648 -.01576156 00000+0 -28142-1 0 9992 2 64314 69.9997 120.0610 0003587 271.3866 338.7806 15.52758148 5078
UTC large
Height (km)
Speed (km/s)
/
Latitude / Longitude
Inclination (degrees)
Orbital Period (minutes)
Azimuth
Elevation
Range (km)
Doppler Factor

Next 0 passes for location: London (51.5072 / 0.1276)

Sorry there are no passes over London.